This is the latest recevied weather packets stored in our database for station/object S57D-6. If no packets are shown the sender has not sent any weather packets the latest 10 day(s).
| Time | Temp. | Humidity | Pressure | Rain* | Wind** | Luminosity | Snow |
|---|---|---|---|---|---|---|---|
| 1777111602 | 21.67° C | 48% | 1014.7 hPa | 0 mm | - | - | - |
| 1777111303 | 21.67° C | 49% | 1014.7 hPa | 0 mm | - | - | - |
| 1777111002 | 21.67° C | 51% | 1014.9 hPa | 0 mm | - | - | - |
| 1777110703 | 21.67° C | 51% | 1014.9 hPa | 0 mm | - | - | - |
| 1777110401 | 21.11° C | 50% | 1014.9 hPa | 0 mm | - | - | - |
| 1777110102 | 21.11° C | 52% | 1015 hPa | 0 mm | - | - | - |
| 1777109801 | 21.11° C | 52% | 1015.1 hPa | 0 mm | - | - | - |
| 1777109200 | 20.56° C | 55% | 1015.2 hPa | 0 mm | - | - | - |
| 1777108600 | 20° C | 55% | 1015.3 hPa | 0 mm | - | - | - |
| 1777108300 | 20° C | 58% | 1015.3 hPa | 0 mm | - | - | - |
| 1777107999 | 19.44° C | 58% | 1015.3 hPa | 0 mm | - | - | - |
| 1777107399 | 18.89° C | 58% | 1015.4 hPa | 0 mm | - | - | - |
| 1777106798 | 18.33° C | 58% | 1015.6 hPa | 0 mm | - | - | - |
| 1777106499 | 17.78° C | 57% | 1015.7 hPa | 0 mm | - | - | - |
| 1777106197 | 17.78° C | 58% | 1015.6 hPa | 0 mm | - | - | - |
| 1777105597 | 17.22° C | 59% | 1015.8 hPa | 0 mm | - | - | - |
| 1777104996 | 16.67° C | 61% | 1016 hPa | 0 mm | - | - | - |
| 1777104697 | 16.11° C | 62% | 1015.9 hPa | 0 mm | - | - | - |
| 1777104396 | 15.56° C | 63% | 1016 hPa | 0 mm | - | - | - |
| 1777103795 | 15.56° C | 66% | 1016.1 hPa | 0 mm | - | - | - |
| 1777103194 | 15° C | 67% | 1016.2 hPa | 0 mm | - | - | - |
* Rain latest hour (hover to see other rain measurements)
** Current wind speed in m/s (hover to see current wind gust speed)